Location: T�chigga el Be�da
(16.4766°N, 9.3887°W)
Time: 14:24:40
(UTC+00:00)

NOSS 3-4 (C) - Pass Details

Date: 27 February 2020
Orbit: 900 x 1313 km, 63.4° (Epoch: 26 March)

Event Time Altitude Azimuth Distance (km) Brightness Sun altitude
Rises 20:57:12 0° 215° (SW) 3,553 6.9 -32.7°
Reaches altitude 10° 20:59:48 10° 220° (SW) 2,587 6.1 -33.3°
Enters shadow 21:04:55 50° 273° (W) 1,130 4.0 -34.5°
